N5ZKK Weather Reports


Display with metric or nautical units.
time (UTC)temp
F
wind
direction
speed
MPH
gust
MPH
rain 1hr
in
rain 24hr
in
rain mn
in
humidity
%
barometer
mb
20260505050901 69 150 2.0 5.0 0.00 0.00 0.00 88 1011.0
20260505050526 69 150 3.0 5.0 0.00 0.00 0.00 88 1012.6
20260505041552 70 168 3.0 4.0 0.00 0.00 0.00 84 1012.4
20260505040901 70 165 2.0 6.0 0.00 0.00 0.00 84 1010.6
20260505040516 71 166 2.0 7.0 0.00 0.00 0.00 84 1012.4
20260505035518 71 184 2.0 4.0 0.00 0.00 0.00 84 1012.4
20260505034520 71 164 3.0 6.0 0.00 0.00 0.00 84 1012.2
20260505033901 70 153 2.0 7.0 0.00 0.00 0.00 84 1010.4
20260505033522 71 154 3.0 7.0 0.00 0.00 0.00 84 1012.2
20260505032525 71 198 3.0 5.0 0.00 0.00 0.00 84 1012.1
20260505031526 71 179 3.0 5.0 0.00 0.00 0.00 83 1012.0
20260505030901 71 168 3.0 6.0 0.00 0.00 0.00 83 1010.2
20260505030549 71 168 4.0 7.0 0.00 0.00 0.00 83 1012.0
20260505025531 72 156 5.0 8.0 0.00 0.00 0.00 82 1012.2
20260505024555 72 154 4.0 6.0 0.00 0.00 0.00 82 1012.2
20260505023901 72 177 3.0 5.0 0.00 0.00 0.00 81 1010.1
20260505023517 72 178 3.0 5.0 0.00 0.00 0.00 81 1012.1
20260505022519 72 164 4.0 6.0 0.00 0.00 0.00 80 1012.1
20260505021542 73 160 4.0 7.0 0.00 0.00 0.00 79 1012.2
20260505020901 72 184 2.0 3.0 0.00 0.00 0.00 78 1010.1
20260505020517 73 185 3.0 4.0 0.00 0.00 0.00 79 1012.2
20260505015546 73 191 4.0 7.0 0.00 0.00 0.00 78 1012.0
20260505014528 74 180 3.0 6.0 0.00 0.00 0.00 77 1012.2
20260505013901 74 176 4.0 6.0 0.00 0.00 0.00 75 1010.0
20260505013531 74 177 4.0 7.0 0.00 0.00 0.00 76 1012.2
20260505012533 75 176 3.0 7.0 0.00 0.00 0.00 75 1012.1
20260505011517 75 176 5.0 7.0 0.00 0.00 0.00 74 1012.0
20260505010901 75 155 4.0 6.0 0.00 0.00 0.00 72 1009.8
20260505010519 76 155 4.0 7.0 0.00 0.00 0.00 72 1012.2
20260505005520 76 191 6.0 8.0 0.00 0.00 0.00 71 1012.2
20260505004518 77 181 5.0 11.0 0.00 0.00 0.00 70 1012.2
20260505003901 77 171 4.0 6.0 0.00 0.00 0.00 69 1009.7
20260505003520 77 171 5.0 7.0 0.00 0.00 0.00 69 1012.2
20260505002522 78 169 7.0 10.0 0.00 0.00 0.00 68 1012.3
20260505001524 79 209 6.0 13.0 0.00 0.00 0.00 67 1012.4
20260505000901 80 153 5.0 10.0 0.00 0.00 0.00 64 1009.3
20260505000526 80 153 6.0 10.0 0.00 0.00 0.00 64 1012.2
20260504235528 80 168 6.0 8.0 0.00 0.00 0.00 65 1012.2
20260504234524 80 156 7.0 10.0 0.00 0.00 0.00 64 1012.0
20260504233901 81 171 5.0 9.0 0.00 0.00 0.00 62 1009.2
20260504233520 82 172 5.0 9.0 0.00 0.00 0.00 62 1012.2
20260504232516 82 161 6.0 9.0 0.00 0.00 0.00 61 1012.1
20260504230901 80 153 8.0 11.0 0.00 0.00 0.00 62 1009.3
20260504230520 81 154 9.0 12.0 0.00 0.00 0.00 63 1012.2
20260504225602 82 194 7.0 13.0 0.00 0.00 0.00 62 1012.4
20260504224525 82 166 4.0 9.0 0.00 0.00 0.00 62 1012.6
20260504223901 81 167 4.0 7.0 0.00 0.00 0.00 62 1009.6
20260504223527 82 167 5.0 8.0 0.00 0.00 0.00 63 1012.6
20260504222529 81 168 7.0 11.0 0.00 0.00 0.00 62 1012.6
20260504221532 82 169 6.0 12.0 0.00 0.00 0.00 61 1012.7
20260504220901 81 167 6.0 9.0 0.00 0.00 0.00 61 1009.9
20260504220536 82 167 6.0 9.0 0.00 0.00 0.00 62 1012.9
20260504215518 82 145 6.0 12.0 0.00 0.00 0.00 62 1013.0
20260504214520 81 182 6.0 10.0 0.00 0.00 0.00 62 1013.3
20260504213901 81 177 6.0 11.0 0.00 0.00 0.00 61 1010.5
20260504213523 81 178 6.0 12.0 0.00 0.00 0.00 62 1013.4
20260504212525 81 197 6.0 13.0 0.00 0.00 0.00 63 1013.4
20260504211527 81 139 7.0 10.0 0.00 0.00 0.00 62 1013.3
20260504210901 81 165 5.0 11.0 0.00 0.00 0.00 62 1010.5
20260504210523 82 165 6.0 11.0 0.00 0.00 0.00 62 1013.5
20260504205519 80 204 7.0 15.0 0.00 0.00 0.00 64 1013.9
20260504204515 81 183 8.0 15.0 0.00 0.00 0.00 62 1014.1
20260504203901 83 187 7.0 13.0 0.00 0.00 0.00 59 1011.0
20260504203517 83 188 8.0 14.0 0.00 0.00 0.00 60 1014.1
20260504202520 82 190 7.0 10.0 0.00 0.00 0.00 61 1014.3
20260504201521 81 173 7.0 10.0 0.00 0.00 0.00 62 1014.5
20260504200901 81 167 5.0 9.0 0.00 0.00 0.00 62 1011.8
20260504200524 81 168 6.0 10.0 0.00 0.00 0.00 62 1014.7
20260504195526 81 165 8.0 13.0 0.00 0.00 0.00 61 1014.8
20260504194528 81 167 7.0 11.0 0.00 0.00 0.00 62 1015.0
20260504193901 81 157 8.0 12.0 0.00 0.00 0.00 62 1012.1
20260504193531 81 157 8.0 12.0 0.00 0.00 0.00 62 1015.1
20260504192553 81 156 7.0 11.0 0.00 0.00 0.00 63 1015.0
20260504191517 81 191 8.0 13.0 0.00 0.00 0.00 62 1015.0
20260504190901 79 165 7.0 12.0 0.00 0.00 0.00 63 1012.6
20260504190519 80 166 7.0 13.0 0.00 0.00 0.00 64 1015.3
20260504185521 81 159 7.0 12.0 0.00 0.00 0.00 62 1015.3
20260504184523 80 193 6.0 12.0 0.00 0.00 0.00 64 1015.4
20260504183901 79 172 7.0 12.0 0.00 0.00 0.00 64 1012.9
20260504183525 80 173 8.0 12.0 0.00 0.00 0.00 64 1015.5
20260504182522 79 153 7.0 10.0 0.00 0.00 0.00 66 1015.7
20260504181518 79 187 7.0 12.0 0.00 0.00 0.00 66 1015.9
20260504180901 77 189 7.0 11.0 0.00 0.00 0.00 67 1013.6
20260504180532 77 190 7.0 11.0 0.00 0.00 0.00 68 1016.0
20260504175536 78 176 6.0 9.0 0.00 0.00 0.00 68 1016.2
20260504174519 75 163 9.0 12.0 0.00 0.00 0.00 70 1016.4
20260504173901 74 187 7.0 10.0 0.00 0.00 0.00 71 1014.3
20260504173521 75 188 7.0 10.0 0.00 0.00 0.00 72 1016.5
20260504172524 75 157 8.0 15.0 0.00 0.00 0.00 72 1016.6
20260504171546 73 196 5.0 9.0 0.00 0.00 0.00 75 1016.6
20260504170901 73 179 5.0 9.0 0.00 0.00 0.00 74 1014.6
20260504170528 73 180 5.0 9.0 0.00 0.00 0.00 74 1016.6
20260504150901 66 142 7.0 12.0 0.00 0.00 0.00 86 1016.3
20260504150520 67 142 7.0 13.0 0.00 0.00 0.00 86 1017.6
20260504140901 64 208 4.0 6.0 0.00 0.00 0.00 89 1016.4
20260504140515 65 208 4.0 6.0 0.00 0.00 0.00 89 1017.5
20260504130524 62 166 4.0 7.0 0.00 0.00 0.00 91 1017.3
20260504110520 60 140 4.0 7.0 0.00 0.00 0.00 90 1016.8
20260504100516 61 169 5.0 12.0 0.00 0.00 0.00 89 1017.4
20260504081536 60 142 1.0 4.0 0.00 0.00 0.00 89 1018.1
20260504080901 59 165 2.0 4.0 0.00 0.00 0.00 89 1017.5
20260504080518 60 166 2.0 5.0 0.00 0.00 0.00 89 1018.0